Weather History for Kodiak, AK

Change the Weather History Date:

Tuesday, March 19, 2013

  Actual Average Record
Temperature  
Mean Temperature 28 °F 33 °F  
Max Temperature 32 °F 38 °F 49 °F (1984)
Min Temperature 24 °F 28 °F 5 °F (1973)
Degree Days  
Heating Degree Days 37 32  
Month to date heating degree days 615 621  
Since 1 July heating degree days 6536 6494  
Cooling Degree Days 0    
Month to date cooling degree days 0  
Year to date cooling degree days 0  
Moisture  
Dew Point 10 °F    
Average Humidity 0    
Maximum Humidity 0    
Minimum Humidity 0    
Precipitation  
Precipitation 0.00 in 0.18 in 1.11 in (1998)
Month to date precipitation 3.21 3.38  
Year to date precipitation 19.39 17.81  
Snow  
Snow 0.00 in 0.40 in 8.50 in (1960)
Month to date snowfall 5.2 7.0  
Since 1 July snowfall 53.6 56.4  
Snow Depth 0.00 in    
Sea Level Pressure  
Sea Level Pressure 29.90 in    
Wind  
Wind Speed 13 mph (WNW)    
Max Wind Speed 22 mph    
Max Gust Speed 30 mph    
Visibility 10 miles    
Events      
T = Trace of Precipitation, MM = Missing Value Source: NWS Daily Summary

Daily Weather History Graph

Daily Weather History Graph

Search for Another Location

Airport:

Trip Planner

Search our weather history database for the weather conditions in past years. The results will help you decide how hot, cold, wet, or windy it might be!

Date:

Astronomy

Mar. 19, 2013 Rise Set
Actual Time 8:13 AM AKDT 8:22 PM AKDT
Civil Twilight 7:34 AM AKDT 9:01 PM AKDT
Nautical Twilight 6:48 AM AKDT 9:48 PM AKDT
Astronomical Twilight 5:58 AM AKDT 10:38 PM AKDT
Moon 12:02 PM AKDT (3/19) 4:28 AM AKDT (3/19)
Length of Visible Light 13h 27m
Length of Day
12h 09m
Waxing Crescent, 51% of the Moon is Illuminated
Mar 19
Waxing Crescent
Mar 27
Full
Apr 2
Last Quarter
Apr 10
New
Apr 18
First Quarter

Hourly Weather History & Observations

Time (AKDT) Temp. Windchill Dew Point Humidity Pressure Visibility Wind Dir Wind Speed Gust Speed Precip Events Conditions
12:53 AM 26.1 °F 21.9 °F 14.0 °F 60% 29.90 in 10.0 mi SW 3.5 mph - N/A   Clear
1:53 AM 26.1 °F 21.9 °F 15.1 °F 63% 29.90 in 10.0 mi WNW 3.5 mph - N/A   Clear
2:53 AM 28.0 °F - 15.1 °F 58% 29.90 in 10.0 mi Calm Calm - N/A   Clear
3:53 AM 26.1 °F - 15.1 °F 63% 29.90 in 10.0 mi Calm Calm - N/A   Clear
4:53 AM 28.0 °F 19.3 °F 15.1 °F 58% 29.89 in 10.0 mi WNW 9.2 mph - N/A   Clear
5:53 AM 28.0 °F 17.5 °F 12.0 °F 51% 29.88 in 10.0 mi WNW 12.7 mph - N/A   Clear
6:53 AM 28.0 °F 16.1 °F 7.0 °F 41% 29.88 in 10.0 mi NW 16.1 mph 24.2 mph N/A   Partly Cloudy
7:53 AM 27.0 °F 14.3 °F 10.0 °F 49% 29.90 in 10.0 mi WNW 17.3 mph 27.6 mph N/A   Partly Cloudy
8:21 AM 26.6 °F 13.1 °F 10.4 °F 51% 29.89 in 10.0 mi WNW 19.6 mph - N/A   Partly Cloudy
8:28 AM 26.6 °F 13.8 °F 10.4 °F 51% 29.89 in 10.0 mi WNW 17.3 mph - N/A   Partly Cloudy
8:53 AM 27.0 °F 16.1 °F 9.0 °F 47% 29.89 in 10.0 mi NW 12.7 mph 20.7 mph N/A   Partly Cloudy
9:53 AM 28.0 °F 18.1 °F 9.0 °F 45% 29.91 in 10.0 mi WNW 11.5 mph - N/A   Partly Cloudy
10:53 AM 28.9 °F 20.4 °F 10.0 °F 45% 29.91 in 10.0 mi NW 9.2 mph 20.7 mph N/A   Partly Cloudy
11:53 AM 30.0 °F 20.0 °F 10.9 °F 45% 29.91 in 10.0 mi NW 12.7 mph 19.6 mph N/A   Partly Cloudy
12:53 PM 30.9 °F 18.4 °F 10.9 °F 43% 29.91 in 10.0 mi West 20.7 mph 25.3 mph N/A   Partly Cloudy
1:53 PM 32.0 °F 20.8 °F 10.0 °F 40% 29.91 in 10.0 mi WNW 17.3 mph 24.2 mph N/A   Partly Cloudy
2:53 PM 32.0 °F 20.8 °F 10.0 °F 40% 29.92 in 10.0 mi West 17.3 mph 26.5 mph N/A   Scattered Clouds
3:53 PM 30.9 °F 19.8 °F 10.0 °F 42% 29.91 in 10.0 mi WNW 16.1 mph - N/A   Scattered Clouds
4:53 PM 30.9 °F 19.1 °F 10.9 °F 43% 29.90 in 10.0 mi WNW 18.4 mph 26.5 mph N/A   Scattered Clouds
5:53 PM 30.0 °F 17.9 °F 8.1 °F 40% 29.90 in 10.0 mi WNW 18.4 mph 26.5 mph N/A   Scattered Clouds
6:53 PM 28.0 °F 17.5 °F 7.0 °F 41% 29.90 in 10.0 mi West 12.7 mph - N/A   Scattered Clouds
7:53 PM 26.1 °F 15.0 °F 8.1 °F 47% 29.90 in 10.0 mi WNW 12.7 mph 20.7 mph N/A   Partly Cloudy
8:53 PM 25.0 °F 14.8 °F 6.1 °F 45% 29.91 in 10.0 mi WNW 10.4 mph - N/A   Partly Cloudy
9:53 PM 25.0 °F 11.7 °F 7.0 °F 46% 29.91 in 10.0 mi WNW 17.3 mph 25.3 mph N/A   Clear
10:53 PM 25.0 °F 13.1 °F 8.1 °F 49% 29.92 in 10.0 mi WNW 13.8 mph 21.9 mph N/A   Clear
11:53 PM 25.0 °F 13.1 °F 8.1 °F 49% 29.91 in 10.0 mi NW 13.8 mph 21.9 mph N/A   Clear